FW0266 Weather Reports


Display with metric or nautical units.
time (UTC)temp
F
wind
direction
speed
MPH
gust
MPH
rain 1hr
in
rain 24hr
in
rain mn
in
humidity
%
barometer
mb
20260831124540 78 108 10.0 17.0 0.00 0.00 0.00 55 1006.5
20260831123046 78 77 10.0 17.0 0.00 0.00 0.00 55 1006.4
20260831121538 79 136 8.0 13.0 0.00 0.00 0.00 55 1006.3
20260831120037 79 128 5.0 11.0 0.00 0.00 0.00 55 1006.0
20260831114547 80 93 6.0 16.0 0.00 0.00 0.00 55 1006.3
20260831113037 80 120 6.0 13.0 0.00 0.00 0.00 55 1006.3
20260831111538 79 109 5.0 15.0 0.00 0.00 0.00 55 1006.5
20260831110038 80 100 3.0 11.0 0.00 0.00 0.00 51 1006.6
20260831104540 80 103 7.0 16.0 0.00 0.00 0.00 52 1006.5
20260831103038 80 98 8.0 18.0 0.00 0.00 0.00 51 1006.4
20260831101541 80 110 11.0 18.0 0.00 0.00 0.00 53 1006.5
20260831100029 80 100 7.0 14.0 0.00 0.00 0.00 54 1006.3
20260831094528 80 104 5.0 14.0 0.00 0.00 0.00 54 1006.3
20260831093025 80 100 8.0 16.0 0.00 0.00 0.00 53 1006.4
20260831091533 81 99 6.0 16.0 0.00 0.00 0.00 52 1006.2
20260831090023 82 136 7.0 19.0 0.00 0.00 0.00 51 1006.1
20260831084522 82 99 8.0 13.0 0.00 0.00 0.00 51 1006.0
20260831083021 82 120 6.0 10.0 0.00 0.00 0.00 51 1005.9
20260831081522 82 103 5.0 12.0 0.00 0.00 0.00 50 1006.0
20260831080019 82 119 3.0 8.0 0.00 0.00 0.00 50 1006.2
20260831074519 83 103 2.0 10.0 0.00 0.00 0.00 49 1006.2
20260831073019 83 105 2.0 8.0 0.00 0.00 0.00 48 1006.2
20260831071517 81 91 3.0 8.0 0.00 0.00 0.00 47 1006.2
20260831070020 80 96 0.0 2.0 0.00 0.00 0.00 44 1006.2
20260831064516 81 83 2.0 4.0 0.00 0.00 0.00 42 1006.2
20260831063015 80 68 2.0 4.0 0.00 0.00 0.00 40 1006.0
20260831061517 80 103 1.0 4.0 0.00 0.00 0.00 39 1006.0
20260831060011 79 75 2.0 5.0 0.00 0.00 0.00 47 1005.8
20260831054511 80 103 0.0 4.0 0.00 0.00 0.00 49 1005.8
20260831053009 80 118 3.0 6.0 0.00 0.00 0.00 49 1005.8
20260831051512 80 113 2.0 4.0 0.00 0.00 0.00 49 1005.6
20260831050004 82 138 3.0 6.0 0.00 0.00 0.00 49 1005.5
20260831044626 84 152 6.0 10.0 0.00 0.00 0.00 48 1005.7
20260831044502 84 161 6.0 10.0 0.00 0.00 0.00 48 1005.8
20260831043057 85 97 6.0 11.0 0.00 0.00 0.00 40 1005.8
20260831041612 85 97 3.0 12.0 0.00 0.00 0.00 45 1005.5
20260831040053 85 114 7.0 13.0 0.00 0.00 0.00 48 1005.5
20260831034553 85 98 6.0 14.0 0.00 0.00 0.00 48 1005.2
20260831033051 85 101 5.0 13.0 0.00 0.00 0.00 47 1005.1
20260831033002 85 108 5.0 13.0 0.00 0.00 0.00 47 1005.1
20260831031552 86 109 9.0 19.0 0.00 0.00 0.00 47 1004.8
20260831030052 86 110 10.0 19.0 0.00 0.00 0.00 49 1004.7
20260831024548 86 115 9.0 15.0 0.00 0.00 0.00 48 1004.6
20260831023047 87 101 6.0 12.0 0.00 0.00 0.00 46 1004.5
20260831021546 89 153 4.0 11.0 0.00 0.00 0.00 37 1004.4
20260831020046 89 162 7.0 14.0 0.00 0.00 0.00 36 1004.4
20260831014545 91 198 7.0 16.0 0.00 0.00 0.00 34 1004.5
20260831013047 91 186 10.0 15.0 0.00 0.00 0.00 34 1004.3
20260831011547 93 189 9.0 20.0 0.00 0.00 0.00 31 1004.5
20260831010043 93 158 11.0 18.0 0.00 0.00 0.00 31 1004.7
20260831004542 93 158 11.0 18.0 0.00 0.00 0.00 29 1004.5
20260831003043 94 194 12.0 20.0 0.00 0.00 0.00 30 1004.3
20260831001541 94 175 15.0 24.0 0.00 0.00 0.00 29 1004.0
20260831000039 94 203 12.0 21.0 0.00 0.00 0.00 29 1004.1
20260830234638 95 167 14.0 23.0 0.00 0.00 0.00 29 1004.1
20260830233038 95 154 12.0 21.0 0.00 0.00 0.00 29 1004.2
20260830231544 95 200 15.0 24.0 0.00 0.00 0.00 29 1004.2
20260830230043 95 196 12.0 22.0 0.00 0.00 0.00 30 1004.4
20260830224537 95 205 14.0 26.0 0.00 0.00 0.00 30 1004.5
20260830223036 96 160 14.0 23.0 0.00 0.00 0.00 29 1004.6
20260830221534 95 177 13.0 27.0 0.00 0.00 0.00 29 1004.7
20260830220034 96 192 18.0 26.0 0.00 0.00 0.00 28 1005.0
20260830214532 96 181 14.0 25.0 0.00 0.00 0.00 30 1005.1
20260830213033 95 148 13.0 27.0 0.00 0.00 0.00 31 1005.4
20260830211530 96 147 8.0 21.0 0.00 0.00 0.00 31 1005.5
20260830210028 96 158 13.0 23.0 0.00 0.00 0.00 31 1005.8
20260830204528 95 140 15.0 28.0 0.00 0.00 0.00 32 1005.9
20260830203034 95 199 15.0 24.0 0.00 0.00 0.00 32 1006.1
20260830201536 95 196 16.0 25.0 0.00 0.00 0.00 32 1006.3
20260830200024 95 167 14.0 22.0 0.00 0.00 0.00 33 1006.3
20260830194526 95 195 14.0 22.0 0.00 0.00 0.00 33 1006.5
20260830193021 95 181 16.0 24.0 0.00 0.00 0.00 32 1006.6
20260830191524 94 197 12.0 24.0 0.00 0.00 0.00 33 1006.7
20260830190018 93 192 14.0 30.0 0.00 0.00 0.00 33 1006.9
20260830184517 93 150 12.0 21.0 0.00 0.00 0.00 34 1007.1
20260830183013 91 108 9.0 21.0 0.00 0.00 0.00 38 1007.2
20260830181512 90 172 10.0 17.0 0.00 0.00 0.00 36 1007.3
20260830180018 89 205 14.0 21.0 0.00 0.00 0.00 37 1007.4
20260830174520 89 167 12.0 19.0 0.00 0.00 0.00 38 1007.4
20260830173009 90 113 8.0 17.0 0.00 0.00 0.00 39 1007.2
20260830171509 90 109 4.0 16.0 0.00 0.00 0.00 39 1007.1
20260830170008 90 118 9.0 14.0 0.00 0.00 0.00 39 1007.2
20260830164505 89 131 8.0 17.0 0.00 0.00 0.00 39 1007.1
20260830163016 89 118 10.0 15.0 0.00 0.00 0.00 40 1007.1
20260830161500 88 99 8.0 15.0 0.00 0.00 0.00 42 1007.0
20260830160100 87 185 7.0 14.0 0.00 0.00 0.00 42 1006.9
20260830154559 87 155 9.0 15.0 0.00 0.00 0.00 42 1007.0
20260830153057 87 127 9.0 15.0 0.00 0.00 0.00 41 1007.0
20260830151602 86 114 10.0 16.0 0.00 0.00 0.00 42 1007.0
20260830150053 86 152 7.0 15.0 0.00 0.00 0.00 43 1006.8
20260830144553 86 198 9.0 16.0 0.00 0.00 0.00 44 1006.8
20260830143058 85 106 7.0 14.0 0.00 0.00 0.00 45 1006.8
20260830141556 0 0.0 0.0 0.00 0.00 0.00 1006.7
20260830140048 0 0.0 0.0 0.00 0.00 0.00 1006.6
20260830134540 0 0.0 0.0 0.00 0.00 0.00 1006.4
20260830133048 0 0.0 0.0 0.00 0.00 0.00 1006.2
20260830131531 0 90 7.0 14.0 0.00 0.00 0.00 1006.1
20260830130028 81 129 8.0 14.0 0.00 0.00 0.00 51 1005.9